Location: California Mobile Home Park
(33.7461°N, 117.9092°W)
Time: 18:38:15
(UTC+00:00)

Cosmos 1633 Rocket - Pass Details

Date: 29 June 2022
Orbit: 607 x 622 km, 82.5° (Epoch: 07 August)

Event Time Altitude Azimuth Distance (km) Brightness Sun altitude
Rises 12:06:56 0° 175° (S) 2,865 6.2 -7.4°
Reaches altitude 10° 12:09:10 10° 171° (S) 1,962 5.4 -7.0°
Maximum altitude 12:13:25 55° 93° (E) 733 3.8 -6.3°
Drops below altitude 10° 12:17:40 10° 16° (NNE) 1,967 6.4 -5.5°
Sets 12:19:55 0° 12° (NNE) 2,873 7.2 -5.1°
